Theta_e
330 336 337 337 326 323 318 315 314 315 315 316 316 315 314 315 317 319 320 321 321 324 328 330 331 332 332 333 334 334 334 334 333 333 332 331 329 326 324 324 323 327 327
329 333 335 334 324 322 318 316 315 316 316 316 315 316 317 320 322 324 325 326 326 329 330 331 333 334 335 334 335 336 336 336 336 335 334 333 331 329 328 327 325 323 321
329 332 334 331 324 322 319 317 316 316 316 316 319 319 320 323 325 327 327 328 329 329 330 332 334 334 336 336 335 336 337 337 337 337 336 334 333 332 330 328 327 325 323
330 334 335 331 324 322 320 319 318 318 317 319 321 321 323 325 327 327 328 329 329 330 330 332 334 334 335 336 336 336 336 337 337 338 337 337 335 334 332 330 329 328 327
331 334 333 329 324 322 321 320 320 320 320 321 322 322 324 326 327 328 329 329 329 330 331 332 333 334 335 337 337 337 338 338 338 339 338 338 337 336 334 333 331 331 329
332 334 333 329 324 323 322 321 321 321 321 322 322 323 324 325 326 327 328 329 329 330 330 331 332 332 333 336 336 337 337 337 336 339 339 339 339 338 337 335 333 331 331
332 334 332 328 324 323 322 322 322 322 322 322 322 323 324 324 325 326 327 328 329 329 329 329 330 330 330 331 333 334 336 337 337 336 337 339 339 339 339 337 335 333 332
331 332 331 328 326 324 323 322 322 322 323 323 323 323 324 324 324 324 325 326 326 327 326 327 327 327 327 327 328 331 333 335 336 334 335 337 338 339 339 339 338 335 334
330 330 330 329 327 324 324 323 323 323 323 323 323 323 323 324 324 324 324 324 325 325 325 326 327 327 328 329 330 331 333 334 336 336 336 336 337 339 339 340 340 338 336
330 328 328 328 327 326 324 324 324 323 323 323 323 323 323 323 324 324 324 324 324 325 326 328 329 330 331 334 336 337 339 340 342 342 342 339 337 339 339 340 340 340 339
328 327 327 327 326 326 325 324 324 324 324 324 324 324 323 323 323 324 324 324 324 324 324 328 333 335 336 336 337 337 339 340 340 340 340 340 339 338 339 340 340 341 340
324 325 325 325 325 326 325 325 324 324 324 324 324 324 324 324 323 323 323 323 325 329 330 328 325 326 326 329 334 339 341 342 342 341 340 340 339 339 339 339 340 340 341
321 323 323 324 324 324 324 324 324 323 324 324 324 324 324 324 323 323 327 324 332 334 339 339 336 338 339 340 341 341 341 342 341 341 341 339 337 338 339 336 335 337 340
322 322 322 322 323 322 323 323 323 322 322 322 323 323 323 323 323 323 324 332 337 338 337 338 339 340 340 339 339 339 339 340 339 340 340 338 337 337 338 337 337 336 337
327 327 324 322 321 321 322 322 322 321 324 324 322 322 322 322 322 325 325 334 339 339 339 339 338 338 338 338 338 338 337 337 337 337 337 338 339 339 338 337 335 334 337
332 334 333 330 324 321 321 322 321 322 334 333 327 330 332 331 334 338 335 330 335 339 339 339 338 337 337 336 336 336 337 336 336 336 336 337 337 337 337 336 335 334 335
336 337 338 337 331 326 323 323 323 330 340 337 335 340 340 340 341 341 341 341 338 338 339 339 340 341 341 340 339 338 337 337 337 337 338 339 338 338 336 335 334 333 332
336 337 337 339 338 335 332 329 327 330 341 342 339 339 340 342 342 341 341 342 341 341 340 340 341 341 342 340 340 339 338 338 337 338 338 338 336 334 333 333 333 331 330
337 337 337 337 339 338 335 333 333 332 338 341 343 343 342 343 343 343 344 344 343 341 340 341 340 342 342 341 340 339 339 338 337 337 335 333 332 332 331 331 331 330 330
339 338 337 337 337 339 335 333 337 340 341 342 343 344 344 345 344 344 344 343 342 342 341 340 340 339 339 338 337 336 337 336 335 334 333 332 331 330 331 331 330 331 331
339 339 339 338 338 339 339 334 339 341 342 343 344 346 345 345 345 344 344 343 342 341 341 341 339 337 335 333 331 329 328 329 332 332 332 328 329 329 330 331 332 333 332
339 340 341 341 341 339 340 338 339 341 341 343 347 346 345 345 345 344 343 343 343 341 339 339 337 334 329 325 322 324 331 331 330 324 325 327 326 327 328 328 330 333 331
341 342 343 343 342 341 341 341 340 341 342 345 346 343 343 345 344 342 341 340 340 338 333 330 327 321 315 315 315 322 328 328 326 327 326 322 316 323 326 329 330 332 332
344 343 342 342 342 341 340 341 343 342 342 345 347 344 345 344 342 340 338 336 330 323 316 314 313 313 312 312 314 317 320 325 326 323 322 322 313 318 323 325 329 331 333
344 343 342 341 341 340 341 343 343 342 344 346 346 345 343 342 337 332 326 320 314 312 312 309 308 307 307 308 309 311 313 317 323 322 320 320 319 320 317 325 328 331 332
345 345 343 341 340 342 342 343 343 343 345 346 343 342 340 340 333 323 318 313 312 309 309 309 308 307 306 305 306 307 309 312 318 318 319 318 317 316 312 321 326 325 327
Wind_Speed
20 19 16 11 9 8 8 10 11 11 10 10 10 10 11 13 15 16 17 17 17 17 17 18 18 18 18 19 21 21 22 22 23 23 22 22 21 20 20 18 17 12 17
23 21 16 12 11 10 10 11 12 12 12 12 13 13 14 16 16 17 17 17 17 17 17 17 17 16 16 16 18 20 21 21 21 21 20 20 20 19 18 18 17 14 15
23 21 18 15 12 11 11 12 12 13 13 14 14 15 15 16 16 17 17 16 16 15 15 15 15 15 14 14 15 15 16 17 18 18 18 15 15 16 15 15 14 15 13
23 22 19 16 14 12 12 13 13 13 13 14 14 15 15 16 16 16 15 15 15 14 13 13 13 13 12 13 13 14 14 14 13 14 15 15 14 14 13 13 12 13 13
24 21 18 16 14 12 12 13 13 14 14 14 14 14 14 15 15 15 14 14 13 12 11 10 10 10 10 9 9 10 11 11 12 12 10 12 12 12 12 11 11 11 12
23 21 18 15 14 12 12 13 13 13 13 13 13 13 13 13 14 13 13 12 11 10 9 8 8 8 7 6 7 8 9 10 12 11 10 9 10 10 11 10 9 8 9
24 21 18 16 14 12 11 12 12 12 12 13 12 12 13 13 13 12 12 11 9 8 7 6 5 5 5 5 6 7 8 9 10 11 10 10 9 9 10 10 9 8 7
22 21 18 16 14 13 12 11 11 11 11 12 12 12 12 12 12 11 10 9 8 7 6 4 4 4 4 5 6 7 8 9 10 11 10 10 10 10 10 10 9 8 8
21 19 18 16 15 14 12 11 11 10 10 10 10 10 10 10 10 10 9 8 7 7 5 4 3 2 3 5 6 7 8 9 10 11 11 11 12 11 12 11 10 10 9
22 20 18 17 16 15 14 12 11 10 10 9 9 9 9 9 9 8 8 7 6 6 4 3 2 0 2 3 6 8 9 10 10 11 12 12 13 13 14 14 12 11 10
23 21 20 19 17 16 15 13 12 11 10 9 9 9 8 8 8 7 6 6 5 4 3 2 2 3 4 5 6 8 10 11 11 12 13 12 13 14 14 14 15 14 12
24 23 21 20 19 18 17 15 13 12 11 10 9 8 8 7 6 6 6 6 4 3 3 4 5 7 7 7 9 10 11 12 13 12 13 13 13 15 15 16 17 17 16
22 23 22 21 20 19 18 16 14 13 12 10 9 8 8 6 5 5 4 5 5 5 4 5 6 7 8 8 9 11 13 14 14 14 13 14 16 16 16 16 18 19 19
23 21 21 21 21 19 18 16 15 13 11 10 8 8 7 6 6 6 6 7 6 6 8 9 9 10 11 12 13 13 13 13 15 17 15 16 17 17 17 17 20 18 20
21 19 20 20 19 19 18 16 14 12 10 8 8 8 7 7 7 6 7 9 8 8 8 10 12 13 14 16 17 18 17 17 17 18 19 18 17 17 17 18 20 17 19
22 20 18 17 18 18 17 16 13 12 10 8 9 7 6 7 7 6 7 10 11 11 10 11 12 14 16 17 18 19 19 18 18 18 18 19 19 19 20 20 20 19 19
27 21 18 17 17 18 18 17 16 15 12 10 10 10 9 8 9 9 11 11 12 12 13 13 14 16 17 18 19 19 21 21 20 19 19 19 19 18 16 19 20 20 20
29 26 23 21 20 20 19 18 18 18 16 14 13 14 13 12 14 14 15 15 17 14 14 14 17 19 17 16 17 18 20 20 20 20 19 18 17 18 18 18 20 20 21
30 30 29 27 26 24 22 20 19 19 19 18 17 17 16 16 17 18 16 17 19 18 18 16 18 19 16 16 18 19 18 16 17 16 15 14 14 14 16 20 23 23 23
33 30 31 30 30 27 26 24 23 23 20 19 20 20 22 19 14 15 18 16 14 14 14 17 15 14 17 16 15 15 15 15 15 12 12 12 16 16 16 18 21 20 19
35 34 33 33 34 33 31 30 27 25 22 20 18 11 11 15 15 17 17 14 9 8 10 10 11 14 15 14 15 15 11 7 9 12 11 16 12 11 13 15 18 20 18
38 37 35 36 37 37 32 33 32 28 24 21 18 15 14 15 16 13 12 9 8 8 10 11 14 14 12 12 10 10 5 6 4 11 10 10 13 13 15 16 16 15 13
37 38 37 36 36 37 34 35 33 28 24 22 20 19 19 16 13 10 6 6 9 8 7 7 8 6 5 7 8 5 5 4 13 5 8 12 15 12 13 16 17 13 10
35 33 30 30 33 36 35 35 33 32 29 25 22 17 15 11 10 9 7 6 6 4 2 0 2 3 3 3 5 5 4 6 5 10 11 12 14 12 13 16 17 16 13
32 29 27 28 31 33 32 31 30 30 28 23 21 15 13 10 9 6 4 4 3 3 0 2 3 3 5 5 4 4 4 5 6 8 15 18 15 13 14 13 15 15 14
28 27 27 29 32 32 30 31 30 30 27 25 22 18 15 12 9 8 6 5 2 1 2 3 5 6 6 6 6 6 7 6 7 8 14 19 19 16 15 11 11 15 16
Wind_Direction
172 171 159 153 136 124 131 137 140 140 138 134 122 112 106 107 107 105 102 103 103 102 99 95 91 86 83 80 77 76 72 68 65 63 60 58 58 56 56 58 62 65 66
166 165 156 149 140 135 142 140 137 138 136 129 122 120 116 113 110 105 104 103 102 100 96 94 90 84 80 84 77 75 72 68 64 62 60 58 56 54 54 54 58 55 58
166 160 154 152 147 144 143 138 138 134 130 126 122 118 115 113 107 105 103 100 98 96 95 92 87 79 78 79 78 74 70 66 64 60 58 59 55 55 53 54 53 54 54
165 160 158 155 152 149 146 140 136 132 128 124 120 116 114 110 107 105 103 100 99 98 96 94 90 82 76 73 72 69 66 61 54 50 49 48 51 49 52 52 52 49 46
165 162 160 155 152 151 144 139 135 133 130 125 121 117 115 113 110 107 104 102 102 100 98 96 90 82 75 66 60 53 50 47 40 35 31 38 38 39 41 44 48 45 42
165 164 162 158 155 154 147 144 139 135 130 125 122 122 120 117 114 112 110 108 107 102 95 86 79 75 69 58 45 40 32 30 31 19 12 13 25 24 27 28 34 36 34
168 168 166 161 161 158 154 151 146 141 134 128 128 129 128 125 120 117 116 113 109 102 91 81 67 55 47 43 32 18 8 1 9 2 2 3 1 4 13 11 12 13 15
174 172 169 166 168 165 164 160 154 146 141 135 137 139 136 131 126 124 122 121 119 114 104 86 62 40 24 19 16 8 1 347 346 347 349 347 351 354 348 352 355 352 355
179 178 175 175 175 174 171 168 165 158 153 147 146 147 145 141 138 135 135 133 133 130 128 120 98 27 27 5 5 3 357 349 348 345 343 342 332 337 338 332 333 340 337
183 184 183 182 182 183 179 178 177 172 166 164 160 159 159 159 155 153 153 153 152 147 147 147 136 317 339 349 343 338 336 334 331 328 329 335 333 331 323 322 315 320 323
189 191 188 188 188 189 189 187 186 186 183 182 179 177 176 178 176 175 176 179 179 173 190 215 243 282 300 314 318 323 326 328 325 329 334 319 315 327 326 317 311 306 310
192 195 194 192 192 194 195 196 194 197 200 196 197 195 195 197 193 200 212 214 208 227 231 254 261 273 287 298 303 306 311 310 312 317 321 324 324 317 316 314 307 300 295
193 198 196 196 197 198 200 200 202 206 209 207 209 210 211 214 220 225 233 228 237 245 245 279 274 279 282 290 292 299 300 307 303 310 308 319 318 317 306 311 310 299 289
196 201 201 202 202 202 204 206 208 210 216 218 222 227 231 235 239 241 238 235 244 257 259 269 277 274 277 288 293 293 303 300 306 307 305 301 307 306 302 302 309 301 286
199 202 206 207 211 208 201 205 209 213 218 225 229 238 245 248 246 246 240 234 239 247 260 269 277 281 285 289 293 296 297 297 298 301 303 304 303 300 298 294 300 289 277
201 199 202 206 209 212 210 207 205 210 215 220 221 226 224 227 235 245 253 243 246 258 272 276 284 291 292 295 296 297 297 298 299 300 301 303 301 298 294 291 289 289 277
209 205 205 203 205 207 212 207 202 205 214 216 215 219 222 230 245 251 260 265 266 267 275 286 291 293 296 295 297 298 298 299 301 301 303 304 303 298 291 290 288 284 281
216 213 213 216 213 209 208 209 205 209 215 222 227 231 233 236 247 258 270 277 271 271 274 275 285 288 288 293 293 297 296 299 303 306 304 299 298 297 293 285 286 289 287
231 223 221 223 224 219 214 212 213 216 221 229 236 244 253 253 254 258 268 273 272 274 273 280 290 289 289 298 296 300 300 303 305 302 294 295 299 299 294 291 290 294 292
241 236 234 233 233 227 223 216 214 218 227 234 244 249 251 263 262 273 277 278 282 274 273 286 307 315 314 307 311 309 306 302 297 287 290 300 307 306 303 296 301 302 302
244 241 237 233 233 228 223 218 220 223 229 242 259 272 263 264 274 280 282 291 288 283 304 299 312 318 314 309 315 319 316 308 284 287 297 309 321 331 331 318 315 311 309
243 245 242 238 233 228 225 223 223 226 227 241 248 271 274 273 271 266 274 278 283 294 300 306 317 307 309 320 331 337 333 332 286 307 327 325 329 332 334 333 324 318 304
236 243 243 241 232 224 224 221 221 223 224 228 235 242 247 249 253 239 233 258 258 261 261 274 287 288 315 327 338 357 330 324 327 304 329 332 340 335 342 339 335 325 304
241 243 239 233 226 219 223 222 223 225 222 228 233 233 228 227 216 220 228 241 227 215 215 284 329 319 325 332 340 348 344 321 328 319 326 326 345 350 347 345 342 337 308
239 235 229 221 217 217 217 222 224 223 223 229 222 212 206 206 203 199 198 179 160 136 44 355 352 343 338 330 320 317 313 313 306 308 311 322 333 338 348 344 347 349 343
228 223 217 215 215 214 217 221 222 221 223 226 209 205 204 201 202 189 196 182 163 70 19 2 350 339 327 324 322 321 314 313 313 322 311 317 318 328 337 341 340 344 346